STARLINK-31478, 59188

Orbit data source: Space-Track

STARLINK-31478, 59188 is a payload satellite owned by SpaceX/Seattle (US) in LEO that was launched on Sun, 10 Mar 2024 UTC via an FALCON 9 launch vehicle from the Air Force Eastern Test Range (AFETR). Payload-class satellites include a variety of spacecraft equipped with specific instruments for various scientific and technological missions. These include communications satellites like Starlink; space stations such as the ISS; scientific satellites like the Hubble; Earth observation satellites from companies like Planet Labs, Umbra, and HawkEye 360; GPS; miniature CubeSats for education and research; and military/defense satellites.

Loading next visibility...
Identifier
59188, 2024-045L
Orbit
LEO
Country
Flag of USUS
Related business
Manufacturer
SpaceX/Seattle
Mission
Operational Commercial Communications
Bus & Motor
STARLINK V2M, Unknown motor
Mass
730 kg wet, ~700 kg dry
Launch date (UTC)
2024-03-10 (2 years ago)
Launch vehicle
FALCON 9
Launch site
Air Force Eastern Test Range (AFETR)
Object type
Payload
Rocket body
Debris
Shape & HBR
Box + 2 Pan, 17.7 m
Radar Cross Section
33.884 m², Large (>1 m²)

Expand to show TLE details & history
Last TLE update: 2 days ago

TLE from 2 days ago
0 STARLINK-31478
1 59188U 24045L   26171.16116967 -.00004461  00000-0 -15264-3 0  9998
2 59188  43.0013 233.7872 0001024 281.3609  78.7127 15.27586894128831
Epoch: 2026-06-20T03:52Z
TLE epoch observation values (Epoch: 2026-06-20T03:52:05.059Z)
Latitude
-0.00006°
Longitude
-92.61371°
Altitude
482.667 km
Speed
7.626 km/s
True Right ascension
15h 35m 08s
True Declination
0° 00' 00"
Sunlit
Object was in full shadow at epoch
Visualization orbit readout
Latitude
Unknown
Longitude
Unknown
Altitude
Unknown
Speed
Unknown
Apparent Right ascension
Unknown
Apparent Declination
Unknown
Sunlit
N/A
Visualization observer readout
Local Sidereal Time
21:30:42
Azimuth
Unknown
Elevation
Unknown
Doppler factor
Unknown
Orbital elements
Apogee altitude
485.676 km
Perigee altitude
484.271 km
Semi-major axis
6,863.11 km
Eccentricity
0.0001
Inclination
43.0013°
RAAN
233.7872°
Arg. of periapsis
281.3609°
True anomaly
78.72421°
Mean anomaly
78.7127°
Eccentric anomaly
78.71845°
Mean motion
3.81735 °/min
Orbital period
94.31 mins
BSTAR
-0.00015264
Loading maneuver chart data...
Computing Atmospheric mass density...
Loading historical data...
Loading historical data...
Loading historical data...
Loading historical data...
Loading historical data...
Loading historical data...
Loading historical data...

Documentation

Showing up to 5 results
|